Tracking 18840 objects as of 17-November-2017
HD Live streaming from Space Station
objects crossing your sky now

THAICOM 2

Track THAICOM 2 now!
THAICOM 2 is classified as:


NORAD ID: 23314
Int'l Code: 1994-065B
Perigee: 35,962.7 km
Apogee: 36,010.2 km
Inclination: 5.9 °
Period: 1,446.0 minutes
Semi major axis: 42357 km
RCS: 5.566 m2 (large)
Launch date: October 8, 1994
Source: Thailand (THAI)
Launch site: FRENCH GUIANA (FRGUI)

12 C-band, 3 Ku-band; Southeast Asia, Korea, Japan, east coast of China.
aabbcc
Your satellite tracking list
Your tracking list is empty




NASA's NSSDC Master Catalog

Two Line Element Set (TLE):
1 23314U 94065B   17320.42690029 +.00000099 +00000-0 +00000-0 0  9990
2 23314 005.8784 057.8395 0005617 183.3901 192.6972 00.99588257015159
Source of the keplerian elements: AFSPC